Regional Weather Roundup
Issued by NWS Bismarck, ND

Home | Current Version | Previous Version | Text Only | Print | Product List | Glossary On
Versions: 1 2 3 4 5 6 7 8 9 10 11 12 13 14 15 16 17 18 19 20 21 22 23 24 25 26 27 28 29 30 31 32 33 34 35 36 37 38 39 40 41 42 43 44 45 46 47 48 49 50
476
ASUS43 KBIS 161102
RWRBIS

NWR BROADCAST TEXT
NATIONAL WEATHER SERVICE BISMARCK ND
600 AM CDT MON OCT 16 2017

NOTE: "FAIR" INDICATES FEW OR NO CLOUDS BELOW 12,000 FEET WITH NO
SIGNIFICANT WEATHER AND/OR OBSTRUCTIONS TO VISIBILITY.


CITY           SKY/WX    TMP DP  RH WIND       PRES   REMARKS
WILLISTON      CLEAR     38  32  79 SW9       29.96S
MINOT          CLEAR     46  31  55 S16G24    29.92F
MINOT AFB      CLEAR     44  31  61 SW10      29.90F
BISMARCK       CLEAR     31  27  85 E6        30.06F
DICKINSON      CLEAR     40  28  62 SW13      30.00F
GARRISON         N/A     39  31  72 S12       29.98F
HETTINGER ARPT CLEAR     38  26  62 CALM      30.09F
JAMESTOWN      CLEAR     35  29  78 S10       30.08F
CARRINGTON     FAIR      39  30  70 SW10      30.06F
LINTON           N/A     32  27  80 SE8       30.11F
TIOGA          FAIR      41  30  65 SW9       29.94F
$$

CITY           SKY/WX    TMP DP  RH WIND       PRES   REMARKS
GRAND FORKS    CLEAR     32  29  88 S8        30.06F
GRAND FORKS AF CLEAR     35  29  79 SW8       30.05F
DEVILS LAKE    CLEAR     44  34  67 SW14      30.01F
FARGO          CLEAR     33  30  88 S8        30.14S
CANDO          FAIR      30  30 100 S8        30.00F
CAVALIER       FAIR      36  32  87 S7        30.01S
GWINNER          N/A     32  30  93 S7        30.15F
ROLLA          FLURRIES  32  28  86 S9        29.96F
WALHALLA       FAIR     N/A N/A N/A SW7G14    29.99F
$$

CITY           SKY/WX    TMP DP  RH WIND       PRES   REMARKS
ABERDEEN       CLEAR     28  27  96 S8        30.18F WCI  20
MOBRIDGE       CLEAR     37  32  82 S8        30.10F
BUFFALO          N/A     41  27  57 W9        30.03F
RAPID CITY     CLEAR     30  25  81 NW6       30.14F
GLASGOW        CLOUDY    44  33  65 W5        29.96S
SIDNEY         CLEAR     36  30  79 S6        29.99
WOLF POINT     CLOUDY    30  26  85 CALM      29.97S
GLENDIVE       CLEAR     43  29  57 S7        30.02F
MILES CITY     CLOUDY    39  30  70 SE6       30.07S
BAKER          CLEAR     48  29  47 SW16      30.06F
$$

CITY           SKY/WX    TMP DP  RH WIND       PRES   REMARKS
BILLINGS       PTCLDY    51  28  41 SW16      30.12S
GREAT FALLS    CLOUDY    54  25  32 SW21G30   30.06S
$$





USA.gov is the U.S. government's official web portal to all federal, state and local government web resources and services.